Weather History for Mosinee, WI

Change the Weather History Date:

Sunday, November 11, 2012

  Actual Average Record
Temperature  
Mean Temperature 44 °F -  
Max Temperature 59 °F 40 °F 59 °F (2012)
Min Temperature 28 °F 25 °F 14 °F (2008)
Degree Days  
Heating Degree Days 22    
Moisture  
Dew Point 42 °F    
Average Humidity 86    
Maximum Humidity 100    
Minimum Humidity 63    
Precipitation  
Precipitation 0.00 in - - ()
Sea Level Pressure  
Sea Level Pressure 29.73 in    
Wind  
Wind Speed 14 mph (SW)    
Max Wind Speed 17 mph    
Max Gust Speed 24 mph    
Visibility 9 miles    
Events Rain , Thunderstorm    
Averages and records for this station are not official NWS values.
T = Trace of Precipitation, MM = Missing Value Source: NWS Daily Summary

Daily Weather History Graph

Daily Weather History Graph

Search for Another Location

Airport:

Trip Planner

Search our weather history database for the weather conditions in past years. The results will help you decide how hot, cold, wet, or windy it might be!

Date:

Astronomy

Nov. 11, 2012 Rise Set
Actual Time 6:51 AM CST 4:33 PM CST
Civil Twilight 6:19 AM CST 5:05 PM CST
Nautical Twilight 5:44 AM CST 5:40 PM CST
Astronomical Twilight 5:10 AM CST 6:14 PM CST
Moon 3:59 AM CST (11/11) 3:01 PM CST (11/11)
Length of Visible Light 10h 45m
Length of Day
9h 42m
Waning Crescent, 7% of the Moon is Illuminated
Nov 11
Waning Crescent
Nov 13
New
Nov 20
First Quarter
Nov 28
Full
Dec 6
Last Quarter

Hourly Weather History & Observations

Time (CST) Temp. Windchill Dew Point Humidity Pressure Visibility Wind Dir Wind Speed Gust Speed Precip Events Conditions
12:15 AM 59.0 °F - 53.6 °F 82% 29.69 in 10.0 mi SSE 11.5 mph - N/A   Mostly Cloudy
1:15 AM 59.0 °F - 50.0 °F 72% 29.69 in 10.0 mi SSE 12.7 mph 19.6 mph N/A   Overcast
1:35 AM 59.0 °F - 50.0 °F 72% 29.70 in 10.0 mi South 13.8 mph 17.3 mph N/A   Overcast
1:55 AM 59.0 °F - 48.2 °F 67% 29.70 in 10.0 mi South 13.8 mph - N/A Thunderstorm Overcast
2:15 AM 59.0 °F - 46.4 °F 63% 29.70 in 10.0 mi South 17.3 mph 21.9 mph N/A   Overcast
2:35 AM 59.0 °F - 46.4 °F 63% 29.71 in 10.0 mi South 17.3 mph 24.2 mph N/A   Overcast
2:55 AM 59.0 °F - 46.4 °F 63% 29.71 in 10.0 mi South 15.0 mph 23.0 mph N/A   Overcast
3:15 AM 59.0 °F - 48.2 °F 67% 29.71 in 10.0 mi South 16.1 mph - N/A   Overcast
3:35 AM 57.2 °F - 48.2 °F 72% 29.71 in 10.0 mi South 15.0 mph - N/A   Overcast
3:55 AM 55.4 °F - 48.2 °F 77% 29.72 in 10.0 mi South 13.8 mph - N/A   Mostly Cloudy
4:15 AM 57.2 °F - 48.2 °F 72% 29.72 in 10.0 mi South 13.8 mph - N/A   Mostly Cloudy
4:35 AM 55.4 °F - 48.2 °F 77% 29.72 in 10.0 mi South 16.1 mph - N/A   Mostly Cloudy
5:45 AM 57.2 °F - 50.0 °F 77% 29.70 in 10.0 mi South 13.8 mph - N/A   Overcast
6:45 AM 57.2 °F - 51.8 °F 82% 29.71 in 10.0 mi South 13.8 mph 20.7 mph N/A Rain Light Rain
8:45 AM 57.2 °F - 53.6 °F 88% 29.69 in 10.0 mi South 16.1 mph 21.9 mph N/A   Mostly Cloudy
10:45 AM 57.2 °F - 53.6 °F 88% 29.68 in 5.0 mi South 11.5 mph - N/A Rain Rain
12:45 PM 53.6 °F - 53.6 °F 100% 29.63 in 3.0 mi South 11.5 mph - N/A Rain Rain
1:45 PM 48.2 °F - 48.2 °F 100% 29.63 in 5.0 mi West 6.9 mph - N/A Rain Light Rain
2:50 PM 46.4 °F 42.4 °F 46.4 °F 100% 29.64 in 5.0 mi West 8.1 mph - N/A Rain Rain
4:45 PM 42.8 °F 36.6 °F 42.8 °F 100% 29.65 in 4.0 mi West 11.5 mph - N/A Rain Rain
5:55 PM 37.4 °F 28.2 °F 37.4 °F 100% 29.71 in 10.0 mi West 16.1 mph 24.2 mph N/A Rain Light Rain
6:50 PM 35.6 °F 25.5 °F 35.6 °F 100% 29.73 in 10.0 mi West 17.3 mph - N/A   Overcast
7:50 PM 33.8 °F 24.3 °F 33.8 °F 100% 29.75 in 10.0 mi West 13.8 mph - N/A   Overcast
8:45 PM 32.0 °F 22.1 °F 32.0 °F 100% 29.79 in 10.0 mi West 13.8 mph 24.2 mph N/A   Overcast
9:15 PM 32.0 °F 22.5 °F 32.0 °F 100% 29.78 in 10.0 mi West 12.7 mph - N/A   Overcast
9:35 PM 32.0 °F 21.2 °F 32.0 °F 100% 29.80 in 10.0 mi West 16.1 mph 19.6 mph N/A   Overcast
9:45 PM 30.2 °F 18.9 °F 30.2 °F 100% 29.83 in 10.0 mi WSW 16.1 mph 20.7 mph N/A   Overcast
9:55 PM 30.2 °F 18.5 °F 30.2 °F 100% 29.83 in 10.0 mi WSW 17.3 mph 20.7 mph N/A   Overcast
10:15 PM 30.2 °F 19.8 °F 30.2 °F 100% 29.84 in 10.0 mi West 13.8 mph 24.2 mph N/A   Overcast
10:35 PM 30.2 °F 18.9 °F 28.4 °F 93% 29.83 in 10.0 mi West 16.1 mph 23.0 mph N/A   Overcast
10:55 PM 28.4 °F 16.2 °F 28.4 °F 100% 29.82 in 10.0 mi West 17.3 mph 23.0 mph N/A   Overcast
11:55 PM 28.4 °F 16.6 °F 24.8 °F 86% 29.85 in 10.0 mi West 16.1 mph 21.9 mph N/A   Overcast